User: anonymous   Login
Location: Unspecified
(0.0000°N, 0.0000°E)
Time: 07:35:39
(UTC+00:00)
Language:

USA 238 - Orbit

View from above orbital plane
View from above orbital plane
View from above satellite
View from above satellite

Ground track
Ground track

The orbit data is extracted from the following two-line orbital elements,

1 38758U 12048A   18343.17808489 0.00000000  00000-0  00000-0 0    03
2 38758  63.4278   7.2475 0075000   2.2795 357.7204 13.40769957    04
Epoch (UTC): 09 December 2018 04:16:26
Eccentricity: 0.0075000
inclination: 63.4278°
perigee height: 1050 km
apogee height: 1162 km
right ascension of ascending node: 7.2475°
argument of perigee: 2.2795°
revolutions per day: 13.40769957
mean anomaly at epoch: 357.7204°
orbit number at epoch: 0

The dashed part of the orbit path shows where the satellite is in the earth's shadow,  

DLR